Rocky Mount, NC

7:42 PM EDT on March 27, 2017 (GMT -0400)
Rocky Mount-Wilson Regional

Weather History for KRWI - March, 2014

Change the Weather History Date:

Wednesday, March 19, 2014

  Actual Average Record
Temperature  
Mean Temperature 42 °F -  
Max Temperature 48 °F 63 °F 79 °F (1974)
Min Temperature 37 °F 39 °F 18 °F (1967)
Degree Days  
Heating Degree Days 22    
Moisture  
Dew Point 40 °F    
Average Humidity 92    
Maximum Humidity 96    
Minimum Humidity 86    
Precipitation  
Precipitation 0.01 in - - ()
Sea Level Pressure  
Sea Level Pressure 30.11 in    
Wind  
Wind Speed 8 mph (NW)    
Max Wind Speed 10 mph    
Max Gust Speed -    
Visibility 6 miles    
Events Rain    
Averages and records for this station are not official NWS values.
T = Trace of Precipitation, MM = Missing Value Source: NWS Daily Summary

Daily Weather History Graph

Daily Weather History Graph

Search for Another Location

Airport or City:

Trip Planner

Search our weather history database for the weather conditions in past years. The results will help you decide how hot, cold, wet, or windy it might be!

Date:

Astronomy

Mar. 19, 2014 Rise Set
Actual Time 7:16 AM EDT 7:22 PM EDT
Civil Twilight 6:51 AM EDT 7:48 PM EDT
Nautical Twilight 6:21 AM EDT 8:17 PM EDT
Astronomical Twilight 5:51 AM EDT 8:47 PM EDT
Moon 10:32 PM EDT (3/19) 8:47 AM EDT (3/19)
Length of Visible Light 12h 56m
Length of Day
12h 05m
Waning Gibbous, 91% of the Moon is Illuminated
Mar 19
Waning Gibbous
Mar 23
Last Quarter
Mar 30
New
Apr 7
First Quarter
Apr 15
Full

Hourly Weather History & Observations

Time (EDT) Temp. Windchill Dew Point Humidity Pressure Visibility Wind Dir Wind Speed Gust Speed Precip Events Conditions
12:53 AM 37.9 °F 30.9 °F 35.1 °F 89% 30.16 in 10.0 mi North 10.4 mph - N/A   Overcast
1:53 AM 37.9 °F 32.1 °F 35.1 °F 89% 30.15 in 10.0 mi North 8.1 mph - N/A   Overcast
2:53 AM 37.9 °F 32.1 °F 36.0 °F 93% 30.15 in 9.0 mi North 8.1 mph - N/A   Overcast
3:53 AM 37.9 °F 31.5 °F 36.0 °F 93% 30.14 in 3.0 mi North 9.2 mph - N/A   Overcast
4:07 AM 37.9 °F 32.1 °F 36.0 °F 93% 30.13 in 3.0 mi North 8.1 mph - N/A   Overcast
4:30 AM 37.9 °F 30.9 °F 36.0 °F 93% 30.13 in 2.5 mi North 10.4 mph - N/A   Overcast
4:37 AM 37.9 °F 31.5 °F 36.0 °F 93% 30.13 in 3.0 mi North 9.2 mph - N/A   Overcast
4:53 AM 37.9 °F 32.1 °F 36.0 °F 93% 30.15 in 4.0 mi NNW 8.1 mph - N/A   Overcast
5:45 AM 37.9 °F 30.9 °F 36.0 °F 93% 30.17 in 2.5 mi NNW 10.4 mph - N/A   Overcast
5:53 AM 37.0 °F 30.4 °F 36.0 °F 96% 30.17 in 2.5 mi NNW 9.2 mph - N/A   Overcast
6:18 AM 37.0 °F 31.0 °F 36.0 °F 96% 30.18 in 3.0 mi North 8.1 mph - 0.00 in Rain Light Rain
6:53 AM 37.0 °F 30.4 °F 36.0 °F 96% 30.18 in 7.0 mi North 9.2 mph - 0.01 in   Overcast
7:07 AM 37.0 °F 31.6 °F 36.0 °F 96% 30.17 in 8.0 mi North 6.9 mph - N/A   Overcast
7:51 AM 37.4 °F 31.4 °F 35.6 °F 93% 30.17 in 8.0 mi North 8.1 mph - N/A   Overcast
7:53 AM 37.9 °F 32.7 °F 36.0 °F 93% 30.17 in 8.0 mi North 6.9 mph - N/A   Overcast
8:53 AM 37.9 °F 31.5 °F 36.0 °F 93% 30.17 in 8.0 mi North 9.2 mph - N/A   Overcast
9:53 AM 39.0 °F 33.4 °F 37.0 °F 93% 30.17 in 7.0 mi North 8.1 mph - N/A   Overcast
10:53 AM 41.0 °F 35.8 °F 39.0 °F 93% 30.17 in 7.0 mi North 8.1 mph - N/A   Overcast
11:31 AM 42.1 °F 37.7 °F 39.9 °F 92% 30.15 in 5.0 mi North 6.9 mph - N/A   Overcast
11:53 AM 43.0 °F 38.2 °F 39.9 °F 89% 30.15 in 4.0 mi NNW 8.1 mph - N/A   Overcast
12:45 PM 43.0 °F 40.3 °F 41.0 °F 93% 30.13 in 2.5 mi WNW 4.6 mph - 0.00 in Rain Light Rain
12:53 PM 43.0 °F 40.3 °F 41.0 °F 93% 30.13 in 4.0 mi West 4.6 mph - 0.00 in Rain Light Rain
1:53 PM 46.0 °F - 42.1 °F 86% 30.09 in 9.0 mi Calm Calm - 0.00 in   Overcast
2:49 PM 46.4 °F 44.3 °F 44.6 °F 93% 30.07 in 2.5 mi West 4.6 mph - 0.00 in Rain Light Rain
2:53 PM 46.0 °F 43.9 °F 43.0 °F 89% 30.07 in 3.0 mi WNW 4.6 mph - 0.00 in   Overcast
3:53 PM 46.9 °F - 44.1 °F 90% 30.04 in 6.0 mi Calm Calm - N/A   Overcast
4:53 PM 48.9 °F - 45.0 °F 86% 30.01 in 10.0 mi Variable 3.5 mph - N/A   Overcast
5:53 PM 48.9 °F - 46.0 °F 90% 30.00 in 10.0 mi SW 5.8 mph - N/A   Overcast
6:53 PM 48.9 °F - 46.0 °F 90% 30.01 in 10.0 mi SW 6.9 mph - N/A   Overcast
7:53 PM 48.0 °F - 46.0 °F 93% 30.00 in 10.0 mi WSW 9.2 mph - N/A   Overcast
8:53 PM 48.0 °F - 46.0 °F 93% 30.00 in 7.0 mi SW 5.8 mph - N/A   Overcast
9:53 PM 48.0 °F - 45.0 °F 89% 30.00 in 7.0 mi SW 6.9 mph - N/A   Overcast
10:53 PM 48.0 °F - 45.0 °F 89% 30.00 in 10.0 mi SW 9.2 mph - N/A   Overcast
11:15 PM 48.9 °F - 45.0 °F 86% 30.00 in 10.0 mi SW 10.4 mph - N/A   Overcast
11:53 PM 46.9 °F - 44.1 °F 90% 29.99 in 10.0 mi SSW 6.9 mph - N/A   Scattered Clouds